Résultats de la compétition "Championnat de ligue Moyenne distance Rhône Alpes" du 03-06-2007 organisée par le club 2606
     
  Télécharger le fichier CSV.  
     
     

 Circuit "Circuit A"

Licence Nom Prénom Temps CN
précédent
Score sur
la course
Différence
1284PEYVELBenoit0:27:18N/A7404N/A
8695BASSETLucas0:29:50N/A6775N/A
206PERRINGilles0:32:42N/A6181N/A
3563DUSIGNEPatrick0:33:16N/A6076N/A
9183BOULMIERAlain0:34:28N/A5864N/A
10381BANON-SELVESThibaul0:34:53N/A5794N/A
1896ERDINGERFabrice0:34:56N/A5786N/A
1273ANTOINEThomas0:36:07N/A5596N/A
7060CHATELONDavid0:37:16N/A5424N/A
3811GRANGEREmmanuel0:37:33N/A5383N/A
14009FATOUXRemy0:38:26N/A5259N/A
2472LASOUCHEJohann0:38:27N/A5257N/A
2351HELIOTJerome0:38:37N/A5234N/A
8203ASTRADELaurent0:38:49N/A5207N/A
12006JOUNEAUPierre-Henri0:38:51N/A5203N/A
3463DECHAVANNEFranck0:39:21N/A5136N/A
12401KERN-GILLARDMathieu0:40:23N/A5005N/A
13447FLIPODidier0:40:26N/A4999N/A
1265COLLETERThomas0:42:05N/A4803N/A
9664RICHARDMael0:42:24N/A4767N/A
11700JANODFrancois0:42:37N/A4743N/A
1348SINIBALDIMichel0:43:52N/A4608N/A
15925MERLEJulien0:45:31N/A4441N/A
15777MENISSIEREmmanuel0:47:31N/A4254N/A
3580DODINChristophe0:47:39N/A4242N/A
17706COLESJon0:48:05N/A4203N/A
11833WATHELETEric0:48:48N/A4142N/A
6352GAYDONRegis0:51:02N/A3961N/A
16361MARMOTTANTPhilippe0:51:16N/A3942N/A
9460MONTEMONTPatrice0:52:49N/A3827N/A
2856BASSARDBruno0:53:31N/A3777N/A
7877VANDEWEEGHEVincent0:53:33N/A3774N/A
4866BRUNERIEAlain0:54:10N/A3731N/A
484MERMINEric0:54:19N/A3721N/A
1291STEFANINIJ-Philippe0:54:43N/A3694N/A
6021BONNARDINPierre0:59:08N/A3418N/A
814DEVRIEUXRobin1:00:48N/A3324N/A
9230THIEVENAZRoland1:02:53N/A3214N/A
244BONORALaurent1:03:11N/A3199N/A
10374LONGAPatrice1:03:44N/A3171N/A
15623BOUFFIERNicolas1:05:39N/A3079N/A
3101LONGAAlain1:06:17N/A3049N/A
18078RADISSONBruno1:07:52N/A2978N/A
3558LONGALaurent1:08:29N/A2951N/A
803BARRIERXavier1:11:14N/A2837N/A
11946SARTIGuillaume1:12:32N/A2787N/A
4080BONODEAUGuillaume1:13:49N/A2738N/A
8610BAUDRANDChristophe1:15:59N/A2660N/A
7388PORNETPatrick1:16:06N/A2656N/A
17511ANTOINELaurent1:17:59N/A2592N/A
18048BOULORDEric1:34:45N/A2133N/A
17757HILTGUNJ-Michel1:55:10N/A1755N/A
12355YOVCHEVKirilN/AN/A0N/A
2149GILLARDXavierN/AN/A0N/A

  Indice de confiance du circuit (moyenne des différences entre CN et score sur la course des 3 à 10 premiers) : 180






 Retour